Preview of NWS' New Version of Forecast
This preview is not operational and should not be used for support decisions.
Latest weather observations around

York, York Airport (KTHV)

Using English Units (Switch to International System of Units)
Date/ Time (EDT) Wind (mph) Vis. (mi) Weather Sky Cond. Temp (°F) Rel. Humidity Wind Chill (°F) Heat Index (°F) Pressure Precip. (in)
Air Dwpt 6 hour Altimeter (inHg) Sea level (inHg) 1 hr 3 hr 6 hr
Max Min
Jun 25 04:53 Calm 10 Mostly Cloudy BKN120 72 71     97%   73 29.79 29.78 0 1  
Jun 25 03:53 SSE 3 10 Light Rain BKN110 72 71     97%   73 29.78 29.78 0    
Jun 25 03:18 SW 6 3 Rain and Fog/Mist FEW011 BKN038 OVC110 72 71     97%   73 29.8   0    
Jun 25 03:16 SW 5 2 Rain and Fog/Mist FEW009 BKN036 OVC110 72 71     97%   73 29.8   0    
Jun 25 03:06 W 5 1 Heavy Rain and Fog/Mist SCT009 BKN031 OVC038 72 71     97%   73 29.8   0    
Jun 25 02:59 WSW 6 2 Heavy Rain and Fog/Mist SCT007 SCT034 OVC042 72 71     97%   73 29.8   0    
Jun 25 02:53 Calm 3 Rain and Fog/Mist SCT007 BKN040 OVC060 72 71     97%   73 29.79 29.79 0    
Jun 25 02:50 Calm 2 Rain and Fog/Mist SCT007 BKN038 OVC100 72 72     100%   73 29.79   0    
Jun 25 02:43 3 1.25 Heavy Rain and Fog/Mist SCT007 BKN014 OVC045 72 72     100%   74 29.79   0    
Jun 25 02:40 Calm 1.5 Heavy Rain and Fog/Mist SCT008 BKN016 OVC035 73 72     96%   75 29.8   0    
Jun 25 02:32 Calm 1 Heavy Rain and Fog/Mist FEW008 BKN018 OVC040 73 72     96%   75 29.81   0    
Jun 25 02:28 Calm 1 Heavy Rain and Fog/Mist SCT012 BKN032 OVC040 73 71     94%   74 29.8   0    
Jun 25 02:20 3 1.75 Heavy Rain and Fog/Mist FEW010 BKN020 OVC043 73 71     94%   74 29.81   0    
Jun 25 02:16 W 6 2 Heavy Rain and Fog/Mist FEW018 BKN032 OVC085 73 71     94%   74 29.81   0    
Jun 25 01:53 NW 5 10 Light Rain FEW046 OVC085 74 71     91%   75 29.79 29.78 0   0
Jun 25 00:53 Calm 10 Mostly Cloudy BKN080 BKN110 76 70     82%   77 29.78 29.78 0    
Jun 24 23:53 SE 5 10 Mostly Clear FEW080 74 70     87%   75 29.79 29.78      
Jun 24 22:53 SSW 3 10 Clear CLR 74 70     87%   75 29.81 29.8      
Jun 24 21:53 Calm 10 Clear CLR 76 71     85%   77 29.81 29.8      
Jun 24 20:53 Calm 10 Clear   78 71     79%   79 29.81 29.8      
Jun 24 19:53 SSE 6 10 Clear CLR 81 70     69%   84 29.81 29.8      
Jun 24 18:53 S 6 10 Clear CLR 81 71     72%   85 29.81 29.8      
Jun 24 17:53 3 10 Clear   81 71     72%   85 29.81 29.81      
Jun 24 15:53 W 3 10 Mostly Cloudy FEW055 SCT090 BKN100 84 67     57%   87 29.85 29.84      
Jun 24 14:53 SW 7 10 Mostly Cloudy FEW080 BKN110 84 65     53%   86 29.85 29.85      
Jun 24 13:53 SSW 5 10 Clear CLR 84 64     51%   85 29.85 29.85      
Jun 24 12:53 Calm 10 Clear CLR 83 64     53%   84 29.87 29.87      
Jun 24 11:53 Calm 10 Clear CLR 79 64     60%   79 29.89 29.89      
Jun 24 10:53 Calm 10 Clear CLR 75 63     66%   75 29.91 29.9      
Jun 24 09:53 Calm 10 Partly Cloudy SCT075 73 62     68%   73 29.91 29.91      
Jun 24 08:53 Calm 9 Clear CLR 72 61     68%   72 29.91 29.91      
Jun 24 07:53 Calm 10 Clear CLR 66 60     81%     29.92 29.91      
Jun 24 06:53 Calm 10 Clear CLR 62 59     90%     29.92 29.91      
Jun 24 05:53 Calm 10 Clear CLR 57 56     96%     29.9 29.9      
Jun 24 04:53 Calm 10 Clear CLR 57 56     96%     29.89 29.89      
Jun 24 03:53 Calm 10 Clear CLR 58 56     93%     29.89 29.89      
Jun 24 02:53 Calm 10 Clear CLR 58 57     97%     29.9 29.89      
Jun 24 01:53 Calm 10 Clear CLR 60 57     90%     29.91 29.9      
Jun 24 00:53 Calm 10 Clear CLR 61 57     87%     29.92 29.92      
Jun 23 23:53 Calm 10 Clear CLR 64 57     78%     29.93 29.93      
Jun 23 22:53 Calm 10 Clear CLR 64 57     78%     29.95 29.94      
Jun 23 21:53 Calm 10 Clear CLR 65 58     78%     29.95 29.95      
Jun 23 20:53 Calm 10 Clear CLR 70 56     61%     29.95 29.94      
Jun 23 19:53 SW 6 10 Clear CLR 77 54     45%   77 29.94 29.94      
Jun 23 18:53 SW 3 10 Clear CLR 80 55     42%   80 29.95 29.95      
Jun 23 17:53 SSW 3 10 Clear CLR 81 54     39%   81 29.96 29.96      
Jun 23 16:53 3 10 Clear CLR 82 54     38%   81 29.98 29.98      
Jun 23 15:53 5 10 Clear CLR 82 52     35%   81 29.99 29.99      
Jun 23 14:53 3 10 Clear CLR 81 48     32%   80 30 29.99      
Jun 23 13:53 7 10 Clear CLR 80 49     34%   79 30.01 30.01      
Jun 23 12:53 3 10 Clear CLR 77 48     36%   76 30.04 30.03      
Jun 23 11:53 Calm 10 Clear CLR 77 49     37%   76 30.05 30.05      
Jun 23 10:53 NNW 6 10 Clear CLR 77 51     40%   76 30.08 30.08      
Jun 23 09:53 Calm 10 Clear CLR 74 54     50%   73 30.1 30.1      
Jun 23 08:53 3 10 Clear CLR 69 55     61%     30.12 30.11      
Jun 23 07:53 Calm 10 Clear CLR 63 56     78%     30.12 30.11      
Jun 23 06:53 Calm 10 Clear CLR 56 53     90%     30.11 30.11      
Jun 23 05:53 Calm 10 Clear   51 50     96%     30.09 30.09      
Jun 23 04:53 Calm 10 Clear CLR 52 51     97%     30.08 30.08      
Jun 23 03:53 Calm 10 Clear CLR 53 52     96%     30.08 30.09      
Jun 23 02:53 Calm 10 Clear CLR 54 52     93%     30.08 30.09      
Jun 23 01:53 Calm 10 Clear CLR 55 54     96%     30.07 30.08      
Jun 23 00:53 Calm 10 Clear CLR 57 55     93%     30.07 30.07      
Jun 22 23:53 NW 3 10 Clear CLR 58 57     97%     30.07 30.07      
Jun 22 22:53 Calm 10 Clear CLR 60 57     90%     30.06 30.06      
Jun 22 21:53 Calm 10 Clear CLR 62 59     90%     30.04 30.04      
Jun 22 20:53 Calm 10 Clear CLR 66 59     78%     30.01 30.01      
Jun 22 19:53 NNW 3 10 Clear CLR 74 54     50%   73 30 30      
Jun 22 18:53 WNW 6 10 Mostly Clear FEW080 77 51     40%   76 30 30      
Jun 22 17:53 NNW 8 10 Mostly Clear FEW080 79 50     36%   78 29.99 29.99      
Jun 22 16:53 NNW 10 10 Mostly Cloudy BKN075 80 53     39%   80 30 29.99      
Jun 22 15:53 WNW 8 10 Partly Cloudy SCT070 79 50     36%   78 30 29.99      
Jun 22 14:53 N 9 10 Partly Cloudy SCT070 78 52     40%   77 30.01 30      
Jun 22 13:53 NNW 7 10 Partly Cloudy SCT070 77 48     36%   76 30.01 30      
Jun 22 12:53 N 8 10 Partly Cloudy SCT065 77 52     42%   76 30.02 30.01      
Jun 22 11:53 NNW 11 10 Clear CLR 76 52     43%   75 30.03 30.02      
Jun 22 10:53 NW 8 10 Clear CLR 73 55     53%   73 30.02 30.01      
Jun 22 09:53 N 9 10 Clear CLR 71 53     53%   70 30.01 30.01      
Jun 22 08:53 NW 8 10 Clear CLR 68 53     59%     30 30      
Jun 22 07:53 WNW 6 10 Clear CLR 64 51     63%     30 29.99      
May 14 20:53 SSW 5 9 Clear CLR 72 68     87%   73 29.9 29.9      
May 14 15:53 5 10 Clear CLR 77 68     74%   78 29.97 29.97      
May 14 11:27 Calm 8 Cloudy OVC006 63 61     93%     30.03        
May 14 06:20 ESE 5 0.75 Fog/Mist OVC003 57 57     100%     30        
May 14 02:39 Calm 10 Cloudy OVC007 57 56     96%     29.99        
May 13 22:03 E 5 4 Light Rain and Fog/Mist FEW003 SCT009 OVC019 57 57     100%     30.06   0    
May 13 12:09 ENE 9 7 Light Rain OVC004 56 56     100%     30.11   0    
May 13 07:53 ENE 7 1 Fog/Mist OVC003 58 58     100%     30.11 30.11     0
May 13 03:23 ENE 6 3 Fog/Mist OVC008 61 60     97%     30.06        
May 13 00:20 E 7 3 Fog/Mist BKN009 61 60     97%     30.07        
May 12 19:10 N 10 0.75 Thunderstorms and Heavy Rain and Fog/Mist FEW007 BKN016 OVC043 62 62     100%     30.03   0    
May 12 14:53 ENE 6 7 Clear CLR 75 62     64%   75 29.98 29.98      
May 12 08:53 Calm 6 Fog/Mist OVC007 55 53     93%     30.11 30.11      
May 11 22:53 Calm 10 Mostly Cloudy SCT065 BKN085 61 53     75%     30.09 30.09      
Jun 11 23:53 Calm 10 Clear CLR 68 64     87%     30.07 30.06      
Jun 10 18:53 SW 8 10 Clear CLR 84 60     44%   84 29.99 29.98      
Jun 10 13:53 WSW 10 10 Mostly Clear FEW085 85 59     42%   85 30.02 30.01     0
Jun 09 10:53 NW 10 10 Clear CLR 75 55     50%   75 29.84 29.84      
Jun 09 00:53 Calm 10 Clear   55 52     89%     29.82 29.82      
Jun 08 14:53 E 5 10 Mostly Clear FEW065 73 47     39%   72 29.92 29.93      
Jun 08 05:53 Calm 5 Fog/Mist CLR 45 45     100%     30.03 30.03      
Jun 08 01:53 Calm 10 Mostly Clear FEW060 49 49     100%     30.05 30.05      
Jun 06 03:53 W 3 4 Fog/Mist FEW047 63 63     100%     29.67 29.67      
Jun 05 18:53 Calm 10 Clear CLR 71 65     81%   72 29.69 29.69